Location: Franzen
(48.6167°N, 15.3833°E)
Time: 17:59:33
(UTC+00:00)

Tiros 1 - Visible Passes

Search period start: 28 July 2021 00:00
Search period end: 07 August 2021 00:00
Orbit: 630 x 663 km, 48.4° (Epoch: 27 July)

Date Brightness Start Highest point End Pass type
(mag) Time Alt. Az. Time Alt. Az. Time Alt. Az.
28 Jul 9.4 00:28:14 10° W 00:28:31 11° W 00:28:31 11° W visible
28 Jul 7.1 19:47:21 10° WSW 19:52:05 70° SSE 19:56:47 10° E visible
28 Jul 7.0 21:29:32 10° W 21:34:17 88° S 21:37:12 23° E visible
28 Jul 8.0 23:11:47 10° W 23:14:48 35° WSW 23:14:48 35° WSW visible
29 Jul 7.1 20:13:16 10° W 20:18:02 86° S 20:22:45 10° E visible
29 Jul 7.0 21:55:31 10° W 22:00:14 75° SSW 22:01:16 53° SE visible
29 Jul 9.2 23:37:56 10° W 23:38:53 15° W 23:38:53 15° W visible
30 Jul 7.1 20:39:15 10° W 20:44:01 88° S 20:47:49 16° E visible
30 Jul 7.5 22:21:31 10° W 22:25:26 48° SW 22:25:26 48° SW visible
31 Jul 7.2 19:22:59 10° W 19:27:46 85° S 19:32:30 10° E visible
31 Jul 7.0 21:05:14 10° W 21:09:59 77° SSW 21:12:03 33° ESE visible
31 Jul 8.8 22:47:37 10° W 22:49:41 22° WSW 22:49:41 22° WSW visible
01 Aug 7.1 19:48:58 10° W 19:53:45 89° S 19:58:28 10° E visible
01 Aug 7.2 21:31:14 10° W 21:35:52 56° SSW 21:36:21 53° S visible
02 Aug 7.1 20:14:57 10° W 20:19:43 79° SSW 20:23:03 19° ESE visible
02 Aug 8.2 21:57:19 10° W 22:00:41 32° SW 22:00:41 32° SW visible
03 Aug 7.2 18:58:41 10° W 19:03:29 89° S 19:08:14 10° E visible
03 Aug 7.3 20:40:57 10° W 20:45:37 58° SSW 20:47:25 34° SE visible
03 Aug 9.3 22:23:46 10° W 22:25:03 15° WSW 22:25:03 15° WSW visible
04 Aug 7.2 19:24:40 10° W 19:29:27 81° S 19:34:11 10° ESE visible
04 Aug 7.8 21:07:01 10° W 21:11:22 37° SSW 21:11:50 36° SSW visible
05 Aug 7.3 19:50:39 10° W 19:55:22 61° SSW 19:58:40 19° SE visible
05 Aug 8.8 21:33:24 10° W 21:36:18 21° SW 21:36:18 21° SW visible
06 Aug 7.9 20:16:43 10° W 20:21:07 39° SSW 20:23:09 26° SSE visible
